Weather History for Sierra Vista, AZ

Change the Weather History Date:

Saturday, January 26, 2013

  Actual Average Record
Temperature  
Mean Temperature 56 °F -  
Max Temperature 63 °F 59 °F 75 °F (1990)
Min Temperature 50 °F 37 °F 24 °F (1990)
Degree Days  
Heating Degree Days 8    
Growing Degree Days 6 (Base 50)    
Moisture  
Dew Point 46 °F    
Average Humidity 73    
Maximum Humidity 93    
Minimum Humidity 43    
Precipitation  
Precipitation 0.19 in - - ()
Sea Level Pressure  
Sea Level Pressure 29.94 in    
Wind  
Wind Speed 10 mph (SSW)    
Max Wind Speed 21 mph    
Max Gust Speed 32 mph    
Visibility 10 miles    
Events Rain    
Averages and records for this station are not official NWS values.
T = Trace of Precipitation, MM = Missing Value Source: NWS Daily Summary

Daily Weather History Graph

Daily Weather History Graph

Search for Another Location

Airport:

Trip Planner

Search our weather history database for the weather conditions in past years. The results will help you decide how hot, cold, wet, or windy it might be!

Date:

Astronomy

Jan. 26, 2013 Rise Set
Actual Time 7:17 AM MST 5:50 PM MST
Civil Twilight 6:51 AM MST 6:16 PM MST
Nautical Twilight 6:22 AM MST 6:46 PM MST
Astronomical Twilight 5:53 AM MST 7:14 PM MST
Moon 5:45 PM MST (1/26) 6:39 AM MST (1/26)
Length of Visible Light 11h 24m
Length of Day
10h 33m
Full, 100% of the Moon is Illuminated
Jan 26
Full
Jan 26
Full
Feb 3
Last Quarter
Feb 10
New
Feb 17
First Quarter

Hourly Weather History & Observations

Time (MST) Temp. Dew Point Humidity Pressure Visibility Wind Dir Wind Speed Gust Speed Precip Events Conditions
12:56 AM 55.0 °F 48.0 °F 77% 29.97 in 10.0 mi North 3.5 mph - N/A   Mostly Cloudy
1:56 AM 55.0 °F 46.9 °F 74% 29.96 in 10.0 mi SE 11.5 mph - N/A   Mostly Cloudy
2:56 AM 54.0 °F 48.0 °F 80% 29.95 in 10.0 mi SSE 8.1 mph - N/A   Mostly Cloudy
3:56 AM 55.0 °F 48.0 °F 77% 29.93 in 10.0 mi ESE 3.5 mph - N/A   Mostly Cloudy
4:56 AM 57.0 °F 48.0 °F 72% 29.91 in 10.0 mi South 11.5 mph - N/A   Overcast
5:56 AM 55.0 °F 48.9 °F 80% 29.92 in 6.0 mi South 11.5 mph - 0.04 in Rain Rain
6:56 AM 54.0 °F 48.9 °F 83% 29.94 in 7.0 mi SSE 3.5 mph - 0.03 in Rain Light Rain
7:56 AM 53.1 °F 50.0 °F 89% 29.93 in 10.0 mi SE 15.0 mph 18.4 mph 0.03 in Rain Light Rain
8:56 AM 53.1 °F 51.1 °F 93% 29.94 in 9.0 mi ESE 16.1 mph - 0.00 in Rain Light Rain
9:56 AM 55.0 °F 52.0 °F 89% 29.92 in 10.0 mi ESE 8.1 mph - 0.00 in   Mostly Cloudy
10:56 AM 62.1 °F 46.0 °F 56% 29.92 in 10.0 mi SW 12.7 mph 23.0 mph N/A   Partly Cloudy
11:56 AM 63.0 °F 43.0 °F 48% 29.92 in 10.0 mi SW 19.6 mph 32.2 mph N/A   Scattered Clouds
12:56 PM 63.0 °F 39.9 °F 43% 29.90 in 10.0 mi SSW 20.7 mph 29.9 mph N/A   Scattered Clouds
1:56 PM 57.0 °F 44.1 °F 62% 29.91 in 10.0 mi West 20.7 mph 29.9 mph 0.00 in Rain Light Rain
2:56 PM 55.9 °F 46.0 °F 69% 29.93 in 10.0 mi West 16.1 mph - 0.00 in Rain Light Rain
3:56 PM 55.9 °F 45.0 °F 67% 29.91 in 10.0 mi West 4.6 mph - 0.00 in Rain Light Rain
4:56 PM 57.0 °F 43.0 °F 59% 29.92 in 10.0 mi WSW 4.6 mph - 0.00 in   Mostly Cloudy
5:56 PM 55.9 °F 43.0 °F 62% 29.93 in 10.0 mi SSW 10.4 mph - N/A   Overcast
6:56 PM 53.1 °F 45.0 °F 74% 29.95 in 10.0 mi West 11.5 mph - 0.00 in   Mostly Cloudy
7:56 PM 52.0 °F 45.0 °F 77% 29.97 in 10.0 mi SSW 9.2 mph - 0.03 in Rain Light Rain
8:56 PM 51.1 °F 46.0 °F 83% 29.98 in 10.0 mi West 12.7 mph - 0.00 in Rain Light Rain
9:56 PM 51.1 °F 44.1 °F 77% 29.98 in 10.0 mi WSW 8.1 mph - 0.04 in Rain Light Rain
10:56 PM 50.0 °F 46.0 °F 86% 29.98 in 10.0 mi SW 8.1 mph - 0.01 in Rain Light Rain
11:56 PM 50.0 °F 45.0 °F 83% 29.97 in 10.0 mi SW 9.2 mph - 0.01 in Rain Light Rain